Regional Weather Roundup
Issued by NWS Cleveland, OH

Home | Current Version | Previous Version | Graphics & Text | Print | Product List | Glossary On
Versions: 1 2 3 4 5 6 7 8 9 10 11 12 13 14 15 16 17 18 19 20 21 22 23 24 25 26 27 28 29 30 31 32 33 34 35 36 37 38 39 40 41 42 43 44 45 46 47 48 49 50
000
ASUS41 KCLE 301200
RWRCLE
OHIO REGIONAL WEATHER ROUNDUP
NATIONAL WEATHER SERVICE WILMINGTON, OH
800 AM EDT WED JUL 30 2014

NOTE: "FAIR" INDICATES FEW OR NO CLOUDS BELOW 12,000 FEET WITH NO
SIGNIFICANT WEATHER AND/OR OBSTRUCTIONS TO VISIBILITY.

OHZ001>008-015>018-024>027-034-035-043-044-301300-
   NORTHWEST OHIO

CITY           SKY/WX    TMP DP  RH WIND       PRES   REMARKS
DEFIANCE       MOSUNNY   60  58  92 CALM      30.02R FOG
FINDLAY        LGT RAIN  60  57  89 SW3       30.02R FOG
TOLEDO EXPRESS MOSUNNY   58  56  93 CALM      30.00S FOG
TOLEDO METCALF CLOUDY    60  56  86 SW6       30.01R
LIMA           CLOUDY    59  56  89 SW6       30.03R FOG
$$

OHZ009>014-019>023-028>033-038-089-301300-
   NORTHEAST OHIO

CITY           SKY/WX    TMP DP  RH WIND       PRES   REMARKS
CLE-HOPKINS    PTSUNNY   60  56  86 SW9       30.02S
CLE-LAKEFRONT  MOSUNNY   62  57  83 SW9       29.99R
CUY CO. ARPT   PTSUNNY   61  59  94 SW12      30.01R
LORAIN-ELYRIA  MOSUNNY   63  57  81 SW9       30.02R
ASHTABULA      CLOUDY    58  54  86 SW5       30.01R
AKRON-CANTON   PTSUNNY   59  53  80 SW7       30.03R
WOOSTER        NOT AVBL
MANSFIELD      PTSUNNY   59  57  93 SW6       30.04R
YOUNGSTOWN     CLOUDY    59  52  77 SW8       30.02R
$$

OHZ042-051>053-060>062-070>072-077>081-301300-
  SOUTHWEST OHIO

CITY           SKY/WX    TMP DP  RH WIND       PRES   REMARKS
CINC-COVINGTON PTSUNNY   62  58  86 SW5       30.07S
CINC-LUNKEN    MOSUNNY   59  58  96 CALM      30.08R
HAMILTON       MOSUNNY   60  58  92 CALM      30.07S
DAYTON         NOT AVBL
WRIGHT-PAT AFB MOSUNNY   60  58  94 S5        30.06S
DAYTON GENERAL MOSUNNY   60  58  92 SW3       30.06S
WILMINGTON     SUNNY     59  55  87 SW5       30.07S
$$

OHZ036-037-039>041-045>050-054>059-063>069-073>076-082>088-301300-
  CENTRAL AND SOUTHEAST OHIO

CITY           SKY/WX    TMP DP  RH WIND       PRES   REMARKS
COLUMBUS       SUNNY     60  54  80 S5        30.05R
OSU AIRPORT    SUNNY     59  56  89 S3        30.05R
BOLTON FIELD   NOT AVBL
RICKENBACK AFB NOT AVBL
NEWARK         SUNNY     59  55  87 CALM      30.05R
MARION         PTSUNNY   58  56  93 S3        30.03F FOG
LANCASTER      SUNNY     60  54  80 S3        30.06S
ZANESVILLE     SUNNY     59  53  80 SW6       30.05S
NEW PHILLY     SUNNY     56  54  93 SE5       30.05R
$$



USA.gov is the U.S. government's official web portal to all federal, state and local government web resources and services.